Time,TemperatureF,DewpointF,PressureIn,WindDirection,WindDirectionDegrees,WindSpeedMPH,WindSpeedGustMPH,Humidity,HourlyPrecipIn,Conditions,Clouds,dailyrainin,SoftwareType,DateUTC
2013-03-28 00:00:00,37.8,29.9,30.18,WSW,241,2.0,5.0,73,0.00,,---,0.00,VWS V14.00,2013-03-28 04:00:00,
2013-03-28 00:05:00,37.8,29.9,30.18,SSW,203,3.0,7.0,73,0.00,,---,0.00,VWS V14.00,2013-03-28 04:05:00,
2013-03-28 00:10:00,37.7,29.8,30.18,WSW,248,0.0,4.0,73,0.00,,---,0.00,VWS V14.00,2013-03-28 04:10:00,
2013-03-28 00:15:00,37.7,29.8,30.18,South,184,0.0,1.0,73,0.00,,---,0.00,VWS V14.00,2013-03-28 04:15:00,
2013-03-28 00:20:00,37.6,29.7,30.18,West,260,3.0,4.0,73,0.00,,---,0.00,VWS V14.00,2013-03-28 04:20:00,
2013-03-28 00:25:00,37.5,29.6,30.17,SW,232,0.0,8.0,73,0.00,,---,0.00,VWS V14.00,2013-03-28 04:25:00,
2013-03-28 00:30:00,37.4,29.5,30.17,WSW,246,0.0,1.0,73,0.00,,---,0.00,VWS V14.00,2013-03-28 04:30:00,
2013-03-28 00:35:00,37.3,29.5,30.17,South,191,3.0,3.0,73,0.00,,---,0.00,VWS V14.00,2013-03-28 04:35:00,
2013-03-28 00:40:00,37.2,29.4,30.17,SW,217,1.0,3.0,73,0.00,,---,0.00,VWS V14.00,2013-03-28 04:40:00,
2013-03-28 00:45:00,37.1,29.3,30.17,South,177,0.0,2.0,73,0.00,,---,0.00,VWS V14.00,2013-03-28 04:45:00,
2013-03-28 00:50:00,37.0,29.5,30.17,South,177,0.0,1.0,74,0.00,,---,0.00,VWS V14.00,2013-03-28 04:50:00,
2013-03-28 00:55:00,37.0,29.5,30.17,SSW,201,1.0,5.0,74,0.00,,---,0.00,VWS V14.00,2013-03-28 04:55:00,
2013-03-28 01:00:00,37.0,29.5,30.17,SW,229,0.0,1.0,74,0.00,,---,0.00,VWS V14.00,2013-03-28 05:00:00,
2013-03-28 01:05:00,36.9,29.4,30.17,NW,310,0.0,4.0,74,0.00,,---,0.00,VWS V14.00,2013-03-28 05:05:00,
2013-03-28 01:10:00,36.8,29.3,30.17,SSW,197,0.0,1.0,74,0.00,,---,0.00,VWS V14.00,2013-03-28 05:10:00,
2013-03-28 01:15:00,36.8,29.3,30.17,SW,225,0.0,3.0,74,0.00,,---,0.00,VWS V14.00,2013-03-28 05:15:00,
2013-03-28 01:20:00,36.8,29.6,30.17,SW,225,0.0,0.0,75,0.00,,---,0.00,VWS V14.00,2013-03-28 05:20:00,
2013-03-28 01:25:00,36.8,29.6,30.17,NW,315,3.0,3.0,75,0.00,,---,0.00,VWS V14.00,2013-03-28 05:25:00,
2013-03-28 01:30:00,36.8,29.6,30.17,WSW,238,0.0,4.0,75,0.00,,---,0.00,VWS V14.00,2013-03-28 05:30:00,
2013-03-28 01:35:00,36.7,29.5,30.16,West,261,6.0,6.0,75,0.00,,---,0.00,VWS V14.00,2013-03-28 05:35:00,
2013-03-28 01:40:00,36.7,29.5,30.16,WSW,249,0.0,3.0,75,0.00,,---,0.00,VWS V14.00,2013-03-28 05:40:00,
2013-03-28 01:45:00,36.6,29.8,30.16,WSW,256,1.0,3.0,76,0.00,,---,0.00,VWS V14.00,2013-03-28 05:45:00,
2013-03-28 01:50:00,36.6,29.8,30.16,WNW,292,1.0,2.0,76,0.00,,---,0.00,VWS V14.00,2013-03-28 05:50:00,
2013-03-28 01:55:00,36.6,29.8,30.16,SSW,199,2.0,5.0,76,0.00,,---,0.00,VWS V14.00,2013-03-28 05:55:00,
2013-03-28 02:00:00,36.5,29.7,30.16,SW,234,1.0,4.0,76,0.00,,---,0.00,VWS V14.00,2013-03-28 06:00:00,
2013-03-28 02:05:00,36.5,29.7,30.16,SW,215,0.0,2.0,76,0.00,,---,0.00,VWS V14.00,2013-03-28 06:05:00,
2013-03-28 02:10:00,36.5,29.7,30.17,West,265,0.0,2.0,76,0.00,,---,0.00,VWS V14.00,2013-03-28 06:10:00,
2013-03-28 02:15:00,36.4,29.6,30.16,WSW,258,4.0,4.0,76,0.00,,---,0.00,VWS V14.00,2013-03-28 06:15:00,
2013-03-28 02:20:00,36.4,29.6,30.16,West,265,0.0,2.0,76,0.00,,---,0.00,VWS V14.00,2013-03-28 06:20:00,
2013-03-28 02:25:00,36.4,29.9,30.16,WNW,290,0.0,2.0,77,0.00,,---,0.00,VWS V14.00,2013-03-28 06:25:00,
2013-03-28 02:30:00,36.4,29.9,30.16,SW,222,0.0,4.0,77,0.00,,---,0.00,VWS V14.00,2013-03-28 06:30:00,
2013-03-28 02:35:00,36.4,29.9,30.16,SW,234,0.0,5.0,77,0.00,,---,0.00,VWS V14.00,2013-03-28 06:35:00,
2013-03-28 02:40:00,36.4,29.9,30.16,WSW,246,2.0,2.0,77,0.00,,---,0.00,VWS V14.00,2013-03-28 06:40:00,
2013-03-28 02:45:00,36.3,29.8,30.16,NNW,340,0.0,3.0,77,0.00,,---,0.00,VWS V14.00,2013-03-28 06:45:00,
2013-03-28 02:50:00,36.3,29.8,30.16,West,267,0.0,3.0,77,0.00,,---,0.00,VWS V14.00,2013-03-28 06:50:00,
2013-03-28 02:55:00,36.3,29.8,30.16,NW,309,4.0,11.0,77,0.00,,---,0.00,VWS V14.00,2013-03-28 06:55:00,
2013-03-28 03:00:00,36.3,29.8,30.16,WSW,238,0.0,2.0,77,0.00,,---,0.00,VWS V14.00,2013-03-28 07:00:00,
2013-03-28 03:05:00,36.2,29.7,30.16,WNW,294,3.0,5.0,77,0.00,,---,0.00,VWS V14.00,2013-03-28 07:05:00,
2013-03-28 03:10:00,36.2,30.0,30.16,WNW,284,0.0,1.0,78,0.00,,---,0.00,VWS V14.00,2013-03-28 07:10:00,
2013-03-28 03:15:00,36.1,29.9,30.16,SW,226,6.0,10.0,78,0.00,,---,0.00,VWS V14.00,2013-03-28 07:15:00,
2013-03-28 03:20:00,36.1,29.9,30.16,WSW,255,0.0,2.0,78,0.00,,---,0.00,VWS V14.00,2013-03-28 07:20:00,
2013-03-28 03:25:00,36.0,29.8,30.15,WSW,247,0.0,4.0,78,0.00,,---,0.00,VWS V14.00,2013-03-28 07:25:00,
2013-03-28 03:30:00,35.9,29.7,30.15,SW,230,0.0,2.0,78,0.00,,---,0.00,VWS V14.00,2013-03-28 07:30:00,
2013-03-28 03:35:00,35.9,30.0,30.15,WSW,251,0.0,5.0,79,0.00,,---,0.00,VWS V14.00,2013-03-28 07:35:00,
2013-03-28 03:40:00,35.8,29.9,30.15,SSW,194,1.0,3.0,79,0.00,,---,0.00,VWS V14.00,2013-03-28 07:40:00,
2013-03-28 03:45:00,35.7,29.8,30.15,SSW,194,0.0,1.0,79,0.00,,---,0.00,VWS V14.00,2013-03-28 07:45:00,
2013-03-28 03:50:00,35.6,30.0,30.15,WSW,238,0.0,2.0,80,0.00,,---,0.00,VWS V14.00,2013-03-28 07:50:00,
2013-03-28 03:55:00,35.6,30.0,30.15,NW,304,1.0,1.0,80,0.00,,---,0.00,VWS V14.00,2013-03-28 07:55:00,
2013-03-28 04:00:00,35.5,30.0,30.15,South,173,1.0,2.0,80,0.00,,---,0.00,VWS V14.00,2013-03-28 08:00:00,
2013-03-28 04:05:00,35.4,29.9,30.15,WSW,242,0.0,1.0,80,0.00,,---,0.00,VWS V14.00,2013-03-28 08:05:00,
2013-03-28 04:10:00,35.4,29.9,30.15,WSW,242,0.0,1.0,80,0.00,,---,0.00,VWS V14.00,2013-03-28 08:10:00,
2013-03-28 04:15:00,35.3,29.8,30.15,WSW,242,0.0,4.0,80,0.00,,---,0.00,VWS V14.00,2013-03-28 08:15:00,
2013-03-28 04:20:00,35.3,29.8,30.15,SW,215,2.0,3.0,80,0.00,,---,0.00,VWS V14.00,2013-03-28 08:20:00,
2013-03-28 04:25:00,35.3,29.8,30.15,SW,215,0.0,2.0,80,0.00,,---,0.00,VWS V14.00,2013-03-28 08:25:00,
2013-03-28 04:30:00,35.3,29.8,30.15,NW,323,2.0,2.0,80,0.00,,---,0.00,VWS V14.00,2013-03-28 08:30:00,
2013-03-28 04:35:00,35.3,29.8,30.15,SW,236,3.0,3.0,80,0.00,,---,0.00,VWS V14.00,2013-03-28 08:35:00,
2013-03-28 04:40:00,35.3,29.8,30.15,SSW,210,0.0,3.0,80,0.00,,---,0.00,VWS V14.00,2013-03-28 08:40:00,
2013-03-28 04:45:00,35.3,29.8,30.15,SW,221,0.0,1.0,80,0.00,,---,0.00,VWS V14.00,2013-03-28 08:45:00,
2013-03-28 04:50:00,35.3,29.8,30.15,SW,230,0.0,2.0,80,0.00,,---,0.00,VWS V14.00,2013-03-28 08:50:00,
2013-03-28 04:55:00,35.3,29.8,30.15,WSW,245,0.0,4.0,80,0.00,,---,0.00,VWS V14.00,2013-03-28 08:55:00,
2013-03-28 05:00:00,35.3,29.5,30.15,WSW,256,0.0,2.0,79,0.00,,---,0.00,VWS V14.00,2013-03-28 09:00:00,
2013-03-28 05:05:00,35.3,29.5,30.15,SW,232,3.0,3.0,79,0.00,,---,0.00,VWS V14.00,2013-03-28 09:05:00,
2013-03-28 05:10:00,35.4,29.5,30.16,West,275,0.0,2.0,79,0.00,,---,0.00,VWS V14.00,2013-03-28 09:10:00,
2013-03-28 05:15:00,35.4,29.5,30.16,South,176,0.0,2.0,79,0.00,,---,0.00,VWS V14.00,2013-03-28 09:15:00,
2013-03-28 05:20:00,35.4,29.5,30.16,South,176,0.0,1.0,79,0.00,,---,0.00,VWS V14.00,2013-03-28 09:20:00,
2013-03-28 05:25:00,35.4,29.5,30.16,South,176,0.0,1.0,79,0.00,,---,0.00,VWS V14.00,2013-03-28 09:25:00,
2013-03-28 05:30:00,35.4,29.2,30.15,WSW,239,2.0,2.0,78,0.00,,---,0.00,VWS V14.00,2013-03-28 09:30:00,
2013-03-28 05:35:00,35.4,29.2,30.16,West,268,0.0,0.0,78,0.00,,---,0.00,VWS V14.00,2013-03-28 09:35:00,
2013-03-28 05:40:00,35.5,29.3,30.15,SSW,205,1.0,3.0,78,0.00,,---,0.00,VWS V14.00,2013-03-28 09:40:00,
2013-03-28 05:45:00,35.5,29.3,30.16,SW,215,0.0,2.0,78,0.00,,---,0.00,VWS V14.00,2013-03-28 09:45:00,
2013-03-28 05:50:00,35.5,29.3,30.16,WSW,248,0.0,4.0,78,0.00,,---,0.00,VWS V14.00,2013-03-28 09:50:00,
2013-03-28 05:55:00,35.5,29.3,30.16,WSW,248,0.0,1.0,78,0.00,,---,0.00,VWS V14.00,2013-03-28 09:55:00,
2013-03-28 06:00:00,35.5,29.3,30.16,WSW,238,0.0,0.0,78,0.00,,---,0.00,VWS V14.00,2013-03-28 10:00:00,
2013-03-28 06:05:00,35.5,29.0,30.17,WSW,244,0.0,3.0,77,0.00,,---,0.00,VWS V14.00,2013-03-28 10:05:00,
2013-03-28 06:10:00,35.5,29.0,30.16,West,277,0.0,2.0,77,0.00,,---,0.00,VWS V14.00,2013-03-28 10:10:00,
2013-03-28 06:15:00,35.6,29.1,30.17,WSW,255,0.0,2.0,77,0.00,,---,0.00,VWS V14.00,2013-03-28 10:15:00,
2013-03-28 06:20:00,35.6,29.1,30.17,NW,306,0.0,2.0,77,0.00,,---,0.00,VWS V14.00,2013-03-28 10:20:00,
2013-03-28 06:25:00,35.6,29.1,30.16,West,273,0.0,4.0,77,0.00,,---,0.00,VWS V14.00,2013-03-28 10:25:00,
2013-03-28 06:30:00,35.6,29.1,30.17,West,275,0.0,6.0,77,0.00,,---,0.00,VWS V14.00,2013-03-28 10:30:00,
2013-03-28 06:35:00,35.6,28.8,30.17,SW,233,2.0,4.0,76,0.00,,---,0.00,VWS V14.00,2013-03-28 10:35:00,
2013-03-28 06:40:00,35.6,28.8,30.17,WNW,284,0.0,3.0,76,0.00,,---,0.00,VWS V14.00,2013-03-28 10:40:00,
2013-03-28 06:45:00,35.7,28.9,30.17,WNW,291,2.0,2.0,76,0.00,,---,0.00,VWS V14.00,2013-03-28 10:45:00,
2013-03-28 06:50:00,35.7,28.9,30.17,South,173,3.0,6.0,76,0.00,,---,0.00,VWS V14.00,2013-03-28 10:50:00,
2013-03-28 06:55:00,35.6,28.8,30.17,WNW,284,2.0,4.0,76,0.00,,---,0.00,VWS V14.00,2013-03-28 10:55:00,
2013-03-28 07:00:00,35.6,28.8,30.17,WNW,284,0.0,2.0,76,0.00,,---,0.00,VWS V14.00,2013-03-28 11:00:00,
2013-03-28 07:05:00,35.6,28.8,30.17,WNW,285,2.0,4.0,76,0.00,,---,0.00,VWS V14.00,2013-03-28 11:05:00,
2013-03-28 07:10:00,35.6,28.8,30.17,WNW,289,0.0,1.0,76,0.00,,---,0.00,VWS V14.00,2013-03-28 11:10:00,
2013-03-28 07:16:00,35.5,28.7,30.18,SSW,211,2.0,5.0,76,0.00,,---,0.00,VWS V14.00,2013-03-28 11:16:00,
2013-03-28 07:20:00,35.5,28.7,30.18,WSW,243,0.0,3.0,76,0.00,,---,0.00,VWS V14.00,2013-03-28 11:20:00,
2013-03-28 07:25:00,35.5,28.7,30.19,SW,219,0.0,3.0,76,0.00,,---,0.00,VWS V14.00,2013-03-28 11:25:00,
2013-03-28 07:30:00,35.5,28.7,30.18,SW,228,0.0,2.0,76,0.00,,---,0.00,VWS V14.00,2013-03-28 11:30:00,
2013-03-28 07:35:00,35.5,28.7,30.19,West,262,0.0,1.0,76,0.00,,---,0.00,VWS V14.00,2013-03-28 11:35:00,
2013-03-28 07:41:00,35.5,28.7,30.19,WNW,288,0.0,2.0,76,0.00,,---,0.00,VWS V14.00,2013-03-28 11:41:00,
2013-03-28 07:45:00,35.5,28.7,30.19,West,261,0.0,5.0,76,0.00,,---,0.00,VWS V14.00,2013-03-28 11:45:00,
2013-03-28 07:51:00,35.5,28.7,30.19,WNW,288,0.0,1.0,76,0.00,,---,0.00,VWS V14.00,2013-03-28 11:51:00,
2013-03-28 07:56:00,35.5,29.0,30.19,NW,307,0.0,3.0,77,0.00,,---,0.00,VWS V14.00,2013-03-28 11:56:00,
2013-03-28 08:01:00,35.5,29.0,30.19,WNW,284,4.0,7.0,77,0.00,,---,0.00,VWS V14.00,2013-03-28 12:01:00,
2013-03-28 08:06:00,35.5,29.0,30.20,West,262,1.0,3.0,77,0.00,,---,0.00,VWS V14.00,2013-03-28 12:06:00,
2013-03-28 08:11:00,35.5,29.0,30.20,NW,306,2.0,6.0,77,0.00,,---,0.00,VWS V14.00,2013-03-28 12:11:00,
2013-03-28 08:16:00,35.5,29.0,30.20,SW,234,1.0,2.0,77,0.00,,---,0.00,VWS V14.00,2013-03-28 12:16:00,
2013-03-28 08:21:00,35.5,29.0,30.20,SW,236,0.0,1.0,77,0.00,,---,0.00,VWS V14.00,2013-03-28 12:21:00,
2013-03-28 08:26:00,35.6,29.1,30.20,West,280,0.0,2.0,77,0.00,,---,0.00,VWS V14.00,2013-03-28 12:26:00,
2013-03-28 08:31:00,35.6,29.1,30.21,West,273,1.0,3.0,77,0.00,,---,0.00,VWS V14.00,2013-03-28 12:31:00,
2013-03-28 08:36:00,35.6,29.4,30.21,WNW,300,0.0,6.0,78,0.00,,---,0.00,VWS V14.00,2013-03-28 12:36:00,
2013-03-28 08:40:00,35.6,29.4,30.21,West,260,0.0,2.0,78,0.00,,---,0.00,VWS V14.00,2013-03-28 12:40:00,
2013-03-28 08:46:00,35.6,29.4,30.20,WSW,251,0.0,2.0,78,0.00,,---,0.00,VWS V14.00,2013-03-28 12:46:00,
2013-03-28 08:50:00,35.7,29.5,30.21,WNW,290,0.0,1.0,78,0.00,,---,0.00,VWS V14.00,2013-03-28 12:50:00,
2013-03-28 08:55:00,35.7,29.5,30.21,West,262,0.0,4.0,78,0.00,,---,0.00,VWS V14.00,2013-03-28 12:55:00,
2013-03-28 09:00:00,35.9,30.0,30.21,West,269,3.0,4.0,79,0.00,,---,0.00,VWS V14.00,2013-03-28 13:00:00,
2013-03-28 09:06:00,35.9,29.7,30.21,WSW,248,2.0,2.0,78,0.00,,---,0.00,VWS V14.00,2013-03-28 13:06:00,
2013-03-28 09:11:00,36.0,29.8,30.21,NW,309,0.0,4.0,78,0.00,,---,0.00,VWS V14.00,2013-03-28 13:11:00,
2013-03-28 09:16:00,36.0,29.8,30.21,SSW,209,0.0,5.0,78,0.00,,---,0.00,VWS V14.00,2013-03-28 13:16:00,
2013-03-28 09:21:00,36.1,29.9,30.21,WSW,258,4.0,7.0,78,0.00,,---,0.00,VWS V14.00,2013-03-28 13:21:00,
2013-03-28 09:26:00,36.1,29.9,30.22,WNW,292,1.0,2.0,78,0.00,,---,0.00,VWS V14.00,2013-03-28 13:26:00,
2013-03-28 09:31:00,36.2,30.0,30.22,SW,222,0.0,5.0,78,0.00,,---,0.00,VWS V14.00,2013-03-28 13:31:00,
2013-03-28 09:36:00,36.3,30.1,30.22,WNW,294,1.0,3.0,78,0.00,,---,0.00,VWS V14.00,2013-03-28 13:36:00,
2013-03-28 09:41:00,36.4,30.2,30.22,SW,234,0.0,7.0,78,0.00,,---,0.00,VWS V14.00,2013-03-28 13:41:00,
2013-03-28 09:46:00,36.5,30.3,30.22,WNW,284,1.0,4.0,78,0.00,,---,0.00,VWS V14.00,2013-03-28 13:46:00,
2013-03-28 09:50:00,36.7,30.5,30.22,West,267,2.0,2.0,78,0.00,,---,0.00,VWS V14.00,2013-03-28 13:50:00,
2013-03-28 09:55:00,36.8,30.6,30.22,SW,226,1.0,6.0,78,0.00,,---,0.00,VWS V14.00,2013-03-28 13:55:00,
2013-03-28 10:00:00,37.0,30.8,30.22,WNW,295,0.0,3.0,78,0.00,,---,0.00,VWS V14.00,2013-03-28 14:00:00,
2013-03-28 10:05:00,37.2,31.0,30.22,SW,220,2.0,4.0,78,0.00,,---,0.00,VWS V14.00,2013-03-28 14:05:00,
2013-03-28 10:10:00,37.5,31.3,30.23,WSW,246,1.0,5.0,78,0.00,,---,0.00,VWS V14.00,2013-03-28 14:10:00,
2013-03-28 10:15:00,37.7,31.1,30.22,WNW,294,0.0,4.0,77,0.00,,---,0.00,VWS V14.00,2013-03-28 14:15:00,
2013-03-28 10:20:00,37.9,31.4,30.22,SSW,196,1.0,7.0,77,0.00,,---,0.00,VWS V14.00,2013-03-28 14:20:00,
2013-03-28 10:25:00,38.3,31.7,30.22,SSW,194,0.0,4.0,77,0.00,,---,0.00,VWS V14.00,2013-03-28 14:25:00,
2013-03-28 10:30:00,38.6,31.7,30.22,WNW,285,2.0,5.0,76,0.00,,---,0.00,VWS V14.00,2013-03-28 14:30:00,
2013-03-28 10:35:00,38.8,31.6,30.22,West,267,1.0,7.0,75,0.00,,---,0.00,VWS V14.00,2013-03-28 14:35:00,
2013-03-28 10:40:00,38.9,31.3,30.22,WSW,246,0.0,5.0,74,0.00,,---,0.00,VWS V14.00,2013-03-28 14:40:00,
2013-03-28 10:45:00,39.0,31.4,30.23,WSW,257,1.0,5.0,74,0.00,,---,0.00,VWS V14.00,2013-03-28 14:45:00,
2013-03-28 10:50:00,39.1,31.5,30.23,West,261,3.0,5.0,74,0.00,,---,0.00,VWS V14.00,2013-03-28 14:50:00,
2013-03-28 10:55:00,39.3,31.4,30.23,WNW,286,3.0,9.0,73,0.00,,---,0.00,VWS V14.00,2013-03-28 14:55:00,
2013-03-28 11:00:00,39.5,31.6,30.22,NW,314,0.0,5.0,73,0.00,,---,0.00,VWS V14.00,2013-03-28 15:00:00,
2013-03-28 11:05:00,39.7,31.4,30.23,WSW,255,1.0,6.0,72,0.00,,---,0.00,VWS V14.00,2013-03-28 15:05:00,
2013-03-28 11:10:00,39.9,31.6,30.23,South,190,0.0,7.0,72,0.00,,---,0.00,VWS V14.00,2013-03-28 15:10:00,
2013-03-28 11:15:00,40.4,32.1,30.22,SSW,192,4.0,6.0,72,0.00,,---,0.00,VWS V14.00,2013-03-28 15:15:00,
2013-03-28 11:20:00,40.9,32.2,30.22,SSW,209,3.0,6.0,71,0.00,,---,0.00,VWS V14.00,2013-03-28 15:20:00,
2013-03-28 11:25:00,41.0,33.0,30.23,SW,221,1.0,6.0,73,0.00,,---,0.00,VWS V14.00,2013-03-28 15:25:00,
2013-03-28 11:30:00,41.0,31.3,30.23,NW,326,2.0,6.0,68,0.00,,---,0.00,VWS V14.00,2013-03-28 15:30:00,
2013-03-28 11:35:00,41.1,31.4,30.23,SSW,213,4.0,7.0,68,0.00,,---,0.00,VWS V14.00,2013-03-28 15:35:00,
2013-03-28 11:40:00,41.5,32.1,30.23,WNW,285,0.0,11.0,69,0.00,,---,0.00,VWS V14.00,2013-03-28 15:40:00,
2013-03-28 11:46:00,41.6,31.8,30.23,WNW,293,7.0,7.0,68,0.00,,---,0.00,VWS V14.00,2013-03-28 15:46:00,
2013-03-28 11:51:00,41.5,31.4,30.23,SW,229,2.0,4.0,67,0.00,,---,0.00,VWS V14.00,2013-03-28 15:51:00,
2013-03-28 11:56:00,41.5,31.0,30.23,WNW,301,5.0,11.0,66,0.00,,---,0.00,VWS V14.00,2013-03-28 15:56:00,
2013-03-28 12:01:00,41.3,30.8,30.22,WNW,301,0.0,6.0,66,0.00,,---,0.00,VWS V14.00,2013-03-28 16:01:00,
2013-03-28 12:06:00,41.4,31.3,30.23,WNW,301,0.0,5.0,67,0.00,,---,0.00,VWS V14.00,2013-03-28 16:06:00,
2013-03-28 12:11:00,41.4,30.9,30.23,West,269,2.0,12.0,66,0.00,,---,0.00,VWS V14.00,2013-03-28 16:11:00,
2013-03-28 12:16:00,41.6,31.5,30.22,WNW,303,4.0,4.0,67,0.00,,---,0.00,VWS V14.00,2013-03-28 16:16:00,
2013-03-28 12:21:00,41.9,31.8,30.23,WSW,249,5.0,9.0,67,0.00,,---,0.00,VWS V14.00,2013-03-28 16:21:00,
2013-03-28 12:26:00,41.9,31.0,30.23,NW,326,2.0,10.0,65,0.00,,---,0.00,VWS V14.00,2013-03-28 16:26:00,
2013-03-28 12:31:00,41.9,31.0,30.23,South,175,2.0,5.0,65,0.00,,---,0.00,VWS V14.00,2013-03-28 16:31:00,
2013-03-28 12:36:00,41.9,31.0,30.23,NW,313,0.0,4.0,65,0.00,,---,0.00,VWS V14.00,2013-03-28 16:36:00,
2013-03-28 12:41:00,41.9,31.0,30.23,West,273,0.0,7.0,65,0.00,,---,0.00,VWS V14.00,2013-03-28 16:41:00,
2013-03-28 12:46:00,41.8,30.9,30.23,SSW,211,6.0,6.0,65,0.00,,---,0.00,VWS V14.00,2013-03-28 16:46:00,
2013-03-28 12:51:00,41.7,30.8,30.23,SW,236,0.0,7.0,65,0.00,,---,0.00,VWS V14.00,2013-03-28 16:51:00,
2013-03-28 12:56:00,41.7,30.8,30.23,WNW,303,4.0,4.0,65,0.00,,---,0.00,VWS V14.00,2013-03-28 16:56:00,
2013-03-28 13:01:00,41.7,30.8,30.22,WNW,298,4.0,6.0,65,0.00,,---,0.00,VWS V14.00,2013-03-28 17:01:00,
2013-03-28 13:06:00,41.8,30.5,30.22,WNW,292,2.0,7.0,64,0.00,,---,0.00,VWS V14.00,2013-03-28 17:06:00,
2013-03-28 13:11:00,41.9,31.0,30.22,WNW,290,4.0,4.0,65,0.00,,---,0.00,VWS V14.00,2013-03-28 17:11:00,
2013-03-28 13:16:00,42.0,30.7,30.22,WNW,293,5.0,12.0,64,0.00,,---,0.00,VWS V14.00,2013-03-28 17:16:00,
2013-03-28 13:21:00,42.1,30.8,30.23,WNW,286,0.0,4.0,64,0.00,,---,0.00,VWS V14.00,2013-03-28 17:21:00,
2013-03-28 13:27:00,42.2,30.9,30.22,WNW,298,1.0,4.0,64,0.00,,---,0.00,VWS V14.00,2013-03-28 17:27:00,
2013-03-28 13:32:00,42.3,31.0,30.22,NW,314,2.0,5.0,64,0.00,,---,0.00,VWS V14.00,2013-03-28 17:32:00,
2013-03-28 13:37:00,42.5,31.2,30.22,NW,325,3.0,5.0,64,0.00,,---,0.00,VWS V14.00,2013-03-28 17:37:00,
2013-03-28 13:42:00,42.8,31.1,30.22,West,269,4.0,16.0,63,0.00,,---,0.00,VWS V14.00,2013-03-28 17:42:00,
2013-03-28 13:47:00,43.0,31.3,30.22,WNW,290,3.0,6.0,63,0.00,,---,0.00,VWS V14.00,2013-03-28 17:47:00,
2013-03-28 13:52:00,43.3,30.8,30.22,West,279,3.0,15.0,61,0.00,,---,0.00,VWS V14.00,2013-03-28 17:52:00,
2013-03-28 13:57:00,43.4,30.9,30.22,SSW,202,3.0,6.0,61,0.00,,---,0.00,VWS V14.00,2013-03-28 17:57:00,
2013-03-28 14:02:00,43.5,31.0,30.22,WNW,288,0.0,3.0,61,0.00,,---,0.00,VWS V14.00,2013-03-28 18:02:00,
2013-03-28 14:07:00,43.7,30.7,30.22,NW,317,0.0,6.0,60,0.00,,---,0.00,VWS V14.00,2013-03-28 18:07:00,
2013-03-28 14:12:00,43.8,30.8,30.22,SW,233,3.0,7.0,60,0.00,,---,0.00,VWS V14.00,2013-03-28 18:12:00,
2013-03-28 14:17:00,43.8,30.8,30.22,WSW,250,1.0,6.0,60,0.00,,---,0.00,VWS V14.00,2013-03-28 18:17:00,
2013-03-28 14:22:00,43.8,30.8,30.22,WNW,302,2.0,3.0,60,0.00,,---,0.00,VWS V14.00,2013-03-28 18:22:00,
2013-03-28 14:27:00,43.9,31.3,30.22,WNW,284,5.0,11.0,61,0.00,,---,0.00,VWS V14.00,2013-03-28 18:27:00,
2013-03-28 14:32:00,44.1,31.1,30.22,SW,229,0.0,6.0,60,0.00,,---,0.00,VWS V14.00,2013-03-28 18:32:00,
2013-03-28 14:37:00,44.4,31.8,30.22,SSW,208,0.0,6.0,61,0.00,,---,0.00,VWS V14.00,2013-03-28 18:37:00,
2013-03-28 14:42:00,44.5,31.5,30.21,West,279,0.0,5.0,60,0.00,,---,0.00,VWS V14.00,2013-03-28 18:42:00,
2013-03-28 14:47:00,44.4,31.0,30.22,WNW,300,4.0,11.0,59,0.00,,---,0.00,VWS V14.00,2013-03-28 18:47:00,
2013-03-28 14:52:00,44.4,31.4,30.22,SW,217,2.0,10.0,60,0.00,,---,0.00,VWS V14.00,2013-03-28 18:52:00,
2013-03-28 14:57:00,44.3,31.3,30.22,WSW,251,0.0,5.0,60,0.00,,---,0.00,VWS V14.00,2013-03-28 18:57:00,
2013-03-28 15:02:00,44.1,30.7,30.22,West,279,4.0,10.0,59,0.00,,---,0.00,VWS V14.00,2013-03-28 19:02:00,
2013-03-28 15:07:00,43.9,31.3,30.22,WNW,290,7.0,7.0,61,0.00,,---,0.00,VWS V14.00,2013-03-28 19:07:00,
2013-03-28 15:12:00,43.7,30.7,30.22,SE,136,0.0,7.0,60,0.00,,---,0.00,VWS V14.00,2013-03-28 19:12:00,
2013-03-28 15:17:00,43.6,30.6,30.22,SW,232,1.0,5.0,60,0.00,,---,0.00,VWS V14.00,2013-03-28 19:17:00,
2013-03-28 15:22:00,43.6,30.6,30.21,ESE,119,1.0,10.0,60,0.00,,---,0.00,VWS V14.00,2013-03-28 19:22:00,
2013-03-28 15:27:00,43.5,31.4,30.21,WNW,295,3.0,4.0,62,0.00,,---,0.00,VWS V14.00,2013-03-28 19:27:00,
2013-03-28 15:32:00,43.6,31.5,30.21,West,281,3.0,6.0,62,0.00,,---,0.00,VWS V14.00,2013-03-28 19:32:00,
2013-03-28 15:37:00,43.7,31.5,30.21,West,269,0.0,7.0,62,0.00,,---,0.00,VWS V14.00,2013-03-28 19:37:00,
2013-03-28 15:42:00,43.8,31.6,30.22,NW,318,2.0,7.0,62,0.00,,---,0.00,VWS V14.00,2013-03-28 19:42:00,
2013-03-28 15:47:00,43.9,31.3,30.21,NW,304,3.0,7.0,61,0.00,,---,0.00,VWS V14.00,2013-03-28 19:47:00,
2013-03-28 15:52:00,43.9,31.3,30.21,NW,315,4.0,4.0,61,0.00,,---,0.00,VWS V14.00,2013-03-28 19:52:00,
2013-03-28 15:57:00,43.8,30.8,30.21,WNW,288,0.0,5.0,60,0.00,,---,0.00,VWS V14.00,2013-03-28 19:57:00,
2013-03-28 16:02:00,43.8,31.2,30.21,WNW,294,3.0,5.0,61,0.00,,---,0.00,VWS V14.00,2013-03-28 20:02:00,
2013-03-28 16:07:00,43.7,30.7,30.21,WNW,284,0.0,3.0,60,0.00,,---,0.00,VWS V14.00,2013-03-28 20:07:00,
2013-03-28 16:12:00,43.6,31.0,30.21,WNW,300,2.0,6.0,61,0.00,,---,0.00,VWS V14.00,2013-03-28 20:12:00,
2013-03-28 16:17:00,43.4,30.9,30.22,West,273,1.0,7.0,61,0.00,,---,0.00,VWS V14.00,2013-03-28 20:17:00,
2013-03-28 16:22:00,43.2,30.7,30.22,WSW,246,1.0,5.0,61,0.00,,---,0.00,VWS V14.00,2013-03-28 20:22:00,
2013-03-28 16:27:00,43.2,31.1,30.22,SW,219,0.0,6.0,62,0.00,,---,0.00,VWS V14.00,2013-03-28 20:27:00,
2013-03-28 16:32:00,43.1,31.4,30.22,West,261,0.0,8.0,63,0.00,,---,0.00,VWS V14.00,2013-03-28 20:32:00,
2013-03-28 16:37:00,43.1,31.4,30.22,West,271,0.0,3.0,63,0.00,,---,0.00,VWS V14.00,2013-03-28 20:37:00,
2013-03-28 16:42:00,43.1,31.4,30.22,NW,316,0.0,4.0,63,0.00,,---,0.00,VWS V14.00,2013-03-28 20:42:00,
2013-03-28 16:47:00,43.2,31.9,30.22,SSE,156,0.0,3.0,64,0.00,,---,0.00,VWS V14.00,2013-03-28 20:47:00,
2013-03-28 16:52:00,43.2,31.5,30.22,West,281,0.0,9.0,63,0.00,,---,0.00,VWS V14.00,2013-03-28 20:52:00,
2013-03-28 16:57:00,43.2,31.5,30.22,WNW,298,6.0,9.0,63,0.00,,---,0.00,VWS V14.00,2013-03-28 20:57:00,
2013-03-28 17:02:00,43.2,31.9,30.22,WNW,294,1.0,9.0,64,0.00,,---,0.00,VWS V14.00,2013-03-28 21:02:00,
2013-03-28 17:07:00,43.3,32.0,30.22,WNW,285,5.0,11.0,64,0.00,,---,0.00,VWS V14.00,2013-03-28 21:07:00,
2013-03-28 17:12:00,43.3,32.0,30.23,SW,233,0.0,7.0,64,0.00,,---,0.00,VWS V14.00,2013-03-28 21:12:00,
2013-03-28 17:17:00,43.3,32.0,30.23,SW,229,4.0,8.0,64,0.00,,---,0.00,VWS V14.00,2013-03-28 21:17:00,
2013-03-28 17:22:00,43.2,31.5,30.23,WNW,288,3.0,11.0,63,0.00,,---,0.00,VWS V14.00,2013-03-28 21:22:00,
2013-03-28 17:27:00,43.1,31.8,30.23,West,262,0.0,5.0,64,0.00,,---,0.00,VWS V14.00,2013-03-28 21:27:00,
2013-03-28 17:32:00,42.9,31.6,30.23,West,261,0.0,5.0,64,0.00,,---,0.00,VWS V14.00,2013-03-28 21:32:00,
2013-03-28 17:37:00,42.8,31.5,30.23,WNW,303,3.0,10.0,64,0.00,,---,0.00,VWS V14.00,2013-03-28 21:37:00,
2013-03-28 17:42:00,42.7,31.8,30.23,West,278,1.0,6.0,65,0.00,,---,0.00,VWS V14.00,2013-03-28 21:42:00,
2013-03-28 17:47:00,42.5,32.0,30.24,West,267,2.0,9.0,66,0.00,,---,0.00,VWS V14.00,2013-03-28 21:47:00,
2013-03-28 17:52:00,42.3,32.1,30.24,West,271,0.0,12.0,67,0.00,,---,0.00,VWS V14.00,2013-03-28 21:52:00,
2013-03-28 17:57:00,42.1,32.3,30.24,WSW,243,1.0,4.0,68,0.00,,---,0.00,VWS V14.00,2013-03-28 21:57:00,
2013-03-28 18:02:00,41.9,32.5,30.24,SSW,211,0.0,5.0,69,0.00,,---,0.00,VWS V14.00,2013-03-28 22:02:00,
2013-03-28 18:07:00,41.6,32.6,30.24,WSW,242,0.0,5.0,70,0.00,,---,0.00,VWS V14.00,2013-03-28 22:07:00,
2013-03-28 18:12:00,41.5,32.5,30.24,SW,221,3.0,5.0,70,0.00,,---,0.00,VWS V14.00,2013-03-28 22:12:00,
2013-03-28 18:17:00,41.3,32.6,30.24,West,274,0.0,3.0,71,0.00,,---,0.00,VWS V14.00,2013-03-28 22:17:00,
2013-03-28 18:22:00,41.2,32.5,30.24,West,274,0.0,1.0,71,0.00,,---,0.00,VWS V14.00,2013-03-28 22:22:00,
2013-03-28 18:27:00,41.1,32.4,30.24,West,274,0.0,3.0,71,0.00,,---,0.00,VWS V14.00,2013-03-28 22:27:00,
2013-03-28 18:32:00,41.0,32.7,30.24,West,274,0.0,2.0,72,0.00,,---,0.00,VWS V14.00,2013-03-28 22:32:00,
2013-03-28 18:37:00,40.9,32.6,30.25,West,273,0.0,3.0,72,0.00,,---,0.00,VWS V14.00,2013-03-28 22:37:00,
2013-03-28 18:43:00,40.9,32.6,30.25,West,273,1.0,2.0,72,0.00,,---,0.00,VWS V14.00,2013-03-28 22:43:00,
2013-03-28 18:48:00,40.9,32.6,30.25,West,272,4.0,4.0,72,0.00,,---,0.00,VWS V14.00,2013-03-28 22:48:00,
2013-03-28 18:53:00,40.8,32.5,30.25,West,272,0.0,2.0,72,0.00,,---,0.00,VWS V14.00,2013-03-28 22:53:00,
2013-03-28 18:58:00,40.8,32.5,30.25,WNW,289,0.0,4.0,72,0.00,,---,0.00,VWS V14.00,2013-03-28 22:58:00,
2013-03-28 19:03:00,40.8,32.1,30.25,WNW,288,0.0,3.0,71,0.00,,---,0.00,VWS V14.00,2013-03-28 23:03:00,
2013-03-28 19:08:00,40.9,32.2,30.25,WNW,288,0.0,2.0,71,0.00,,---,0.00,VWS V14.00,2013-03-28 23:08:00,
2013-03-28 19:13:00,40.9,32.6,30.25,WNW,288,0.0,0.0,72,0.00,,---,0.00,VWS V14.00,2013-03-28 23:13:00,
2013-03-28 19:18:00,40.8,32.5,30.25,WNW,288,0.0,3.0,72,0.00,,---,0.00,VWS V14.00,2013-03-28 23:18:00,
2013-03-28 19:23:00,40.8,32.1,30.25,WNW,288,0.0,1.0,71,0.00,,---,0.00,VWS V14.00,2013-03-28 23:23:00,
2013-03-28 19:28:00,40.7,32.0,30.25,WNW,288,0.0,1.0,71,0.00,,---,0.00,VWS V14.00,2013-03-28 23:28:00,
2013-03-28 19:33:00,40.7,32.0,30.25,WNW,288,0.0,0.0,71,0.00,,---,0.00,VWS V14.00,2013-03-28 23:33:00,
2013-03-28 19:38:00,40.7,32.0,30.25,WNW,288,0.0,1.0,71,0.00,,---,0.00,VWS V14.00,2013-03-28 23:38:00,
2013-03-28 19:43:00,40.6,32.0,30.25,WNW,288,0.0,0.0,71,0.00,,---,0.00,VWS V14.00,2013-03-28 23:43:00,
2013-03-28 19:48:00,40.6,32.0,30.25,WNW,288,0.0,0.0,71,0.00,,---,0.00,VWS V14.00,2013-03-28 23:48:00,
2013-03-28 19:53:00,40.6,32.0,30.26,WNW,288,0.0,0.0,71,0.00,,---,0.00,VWS V14.00,2013-03-28 23:53:00,
2013-03-28 19:58:00,40.5,31.9,30.25,WNW,288,0.0,0.0,71,0.00,,---,0.00,VWS V14.00,2013-03-28 23:58:00,
2013-03-28 20:03:00,40.5,31.9,30.25,WNW,288,0.0,0.0,71,0.00,,---,0.00,VWS V14.00,2013-03-29 00:03:00,
2013-03-28 20:08:00,40.4,31.8,30.25,WNW,288,0.0,0.0,71,0.00,,---,0.00,VWS V14.00,2013-03-29 00:08:00,
2013-03-28 20:13:00,40.4,31.8,30.25,WNW,288,0.0,0.0,71,0.00,,---,0.00,VWS V14.00,2013-03-29 00:13:00,
2013-03-28 20:18:00,40.3,31.7,30.25,WNW,288,0.0,0.0,71,0.00,,---,0.00,VWS V14.00,2013-03-29 00:18:00,
2013-03-28 20:23:00,40.2,31.9,30.26,WNW,288,0.0,0.0,72,0.00,,---,0.00,VWS V14.00,2013-03-29 00:23:00,
2013-03-28 20:28:00,40.0,31.7,30.26,WNW,288,0.0,0.0,72,0.00,,---,0.00,VWS V14.00,2013-03-29 00:28:00,
2013-03-28 20:33:00,40.0,32.1,30.26,WNW,288,0.0,0.0,73,0.00,,---,0.00,VWS V14.00,2013-03-29 00:33:00,
2013-03-28 20:38:00,39.8,31.9,30.26,WNW,288,0.0,0.0,73,0.00,,---,0.00,VWS V14.00,2013-03-29 00:38:00,
2013-03-28 20:43:00,39.7,31.8,30.26,WNW,288,0.0,0.0,73,0.00,,---,0.00,VWS V14.00,2013-03-29 00:43:00,
2013-03-28 20:48:00,39.6,32.0,30.26,WNW,288,0.0,0.0,74,0.00,,---,0.00,VWS V14.00,2013-03-29 00:48:00,
2013-03-28 20:53:00,39.5,31.9,30.26,WNW,288,0.0,0.0,74,0.00,,---,0.00,VWS V14.00,2013-03-29 00:53:00,
2013-03-28 20:58:00,39.4,31.8,30.26,WNW,288,0.0,0.0,74,0.00,,---,0.00,VWS V14.00,2013-03-29 00:58:00,
2013-03-28 21:03:00,39.3,32.0,30.26,WNW,288,0.0,0.0,75,0.00,,---,0.00,VWS V14.00,2013-03-29 01:03:00,
2013-03-28 21:08:00,39.2,32.0,30.26,WNW,288,0.0,0.0,75,0.00,,---,0.00,VWS V14.00,2013-03-29 01:08:00,
2013-03-28 21:13:00,39.0,31.8,30.26,WNW,288,0.0,0.0,75,0.00,,---,0.00,VWS V14.00,2013-03-29 01:13:00,
2013-03-28 21:18:00,38.9,31.7,30.26,WNW,288,0.0,0.0,75,0.00,,---,0.00,VWS V14.00,2013-03-29 01:18:00,
2013-03-28 21:23:00,38.8,31.6,30.26,WNW,288,0.0,0.0,75,0.00,,---,0.00,VWS V14.00,2013-03-29 01:23:00,
2013-03-28 21:28:00,38.7,31.8,30.26,WNW,288,0.0,0.0,76,0.00,,---,0.00,VWS V14.00,2013-03-29 01:28:00,
2013-03-28 21:33:00,38.6,32.0,30.27,WNW,288,0.0,0.0,77,0.00,,---,0.00,VWS V14.00,2013-03-29 01:33:00,
2013-03-28 21:38:00,38.5,31.9,30.27,WNW,288,0.0,0.0,77,0.00,,---,0.00,VWS V14.00,2013-03-29 01:38:00,
2013-03-28 21:43:00,38.4,31.8,30.27,WNW,288,0.0,0.0,77,0.00,,---,0.00,VWS V14.00,2013-03-29 01:43:00,
2013-03-28 21:48:00,38.3,31.7,30.27,WNW,288,0.0,0.0,77,0.00,,---,0.00,VWS V14.00,2013-03-29 01:48:00,
2013-03-28 21:53:00,38.2,32.0,30.27,WNW,288,0.0,0.0,78,0.00,,---,0.00,VWS V14.00,2013-03-29 01:53:00,
2013-03-28 21:58:00,38.2,32.0,30.27,WNW,288,0.0,0.0,78,0.00,,---,0.00,VWS V14.00,2013-03-29 01:58:00,
2013-03-28 22:03:00,38.0,31.8,30.27,WNW,288,0.0,0.0,78,0.00,,---,0.00,VWS V14.00,2013-03-29 02:03:00,
2013-03-28 22:08:00,38.0,31.8,30.27,WNW,288,0.0,0.0,78,0.00,,---,0.00,VWS V14.00,2013-03-29 02:08:00,
2013-03-28 22:13:00,37.9,32.0,30.28,WNW,288,0.0,0.0,79,0.00,,---,0.00,VWS V14.00,2013-03-29 02:13:00,
2013-03-28 22:18:00,37.9,32.0,30.27,WNW,288,0.0,0.0,79,0.00,,---,0.00,VWS V14.00,2013-03-29 02:18:00,
2013-03-28 22:23:00,37.8,31.9,30.27,WNW,288,0.0,0.0,79,0.00,,---,0.00,VWS V14.00,2013-03-29 02:23:00,
2013-03-28 22:28:00,37.7,31.8,30.27,WNW,288,0.0,0.0,79,0.00,,---,0.00,VWS V14.00,2013-03-29 02:28:00,
2013-03-28 22:33:00,37.6,32.0,30.27,WNW,288,0.0,0.0,80,0.00,,---,0.00,VWS V14.00,2013-03-29 02:33:00,
2013-03-28 22:38:00,37.5,31.9,30.28,WNW,288,0.0,0.0,80,0.00,,---,0.00,VWS V14.00,2013-03-29 02:38:00,
2013-03-28 22:43:00,37.4,31.8,30.28,WNW,288,0.0,0.0,80,0.00,,---,0.00,VWS V14.00,2013-03-29 02:43:00,
2013-03-28 22:48:00,37.4,31.8,30.28,WNW,288,0.0,0.0,80,0.00,,---,0.00,VWS V14.00,2013-03-29 02:48:00,
2013-03-28 22:53:00,37.3,32.0,30.28,WNW,288,0.0,0.0,81,0.00,,---,0.00,VWS V14.00,2013-03-29 02:53:00,
2013-03-28 22:58:00,37.2,31.9,30.27,WNW,288,0.0,0.0,81,0.00,,---,0.00,VWS V14.00,2013-03-29 02:58:00,
2013-03-28 23:03:00,37.2,31.9,30.27,WNW,288,0.0,0.0,81,0.00,,---,0.00,VWS V14.00,2013-03-29 03:03:00,
2013-03-28 23:08:00,37.1,31.8,30.27,WNW,288,0.0,0.0,81,0.00,,---,0.00,VWS V14.00,2013-03-29 03:08:00,
2013-03-28 23:13:00,37.1,31.8,30.27,WNW,288,0.0,0.0,81,0.00,,---,0.00,VWS V14.00,2013-03-29 03:13:00,
2013-03-28 23:18:00,37.0,32.0,30.27,WNW,288,0.0,0.0,82,0.00,,---,0.00,VWS V14.00,2013-03-29 03:18:00,
2013-03-28 23:23:00,36.9,31.9,30.27,WNW,288,0.0,0.0,82,0.00,,---,0.00,VWS V14.00,2013-03-29 03:23:00,
2013-03-28 23:28:00,36.9,31.9,30.27,WNW,288,0.0,0.0,82,0.00,,---,0.00,VWS V14.00,2013-03-29 03:28:00,
2013-03-28 23:33:00,36.8,31.8,30.27,WNW,288,0.0,0.0,82,0.00,,---,0.00,VWS V14.00,2013-03-29 03:33:00,
2013-03-28 23:38:00,36.7,31.7,30.27,WNW,288,0.0,0.0,82,0.00,,---,0.00,VWS V14.00,2013-03-29 03:38:00,
2013-03-28 23:43:00,36.7,31.7,30.27,WNW,288,0.0,0.0,82,0.00,,---,0.00,VWS V14.00,2013-03-29 03:43:00,
2013-03-28 23:48:00,36.6,31.9,30.27,WNW,288,0.0,0.0,83,0.00,,---,0.00,VWS V14.00,2013-03-29 03:48:00,
2013-03-28 23:53:00,36.5,31.8,30.27,WNW,288,0.0,0.0,83,0.00,,---,0.00,VWS V14.00,2013-03-29 03:53:00,
2013-03-28 23:58:00,36.4,31.7,30.27,WNW,288,0.0,0.0,83,0.00,,---,0.00,VWS V14.00,2013-03-29 03:58:00,